Track STARLINK-4103 now! 10-day predictions STARLINK-4103 is classified as:
1 53141U 22083K 22224.58334491 -.01116094 00000-0 -12042-1 0 9992 2 53141 53.2175 278.3063 0001293 54.5065 53.4370 15.65520204 4745